Theta_e
317 315 314 313 313 313 313 313 314 314 313 312 312 313 312 312 311 311 313 313 315 315 317 317 315 315 314 313 313 314 312 313 314 315 315 315 316 319 318 318 318 319 322 340 343
314 314 315 313 312 312 312 312 313 312 313 312 312 311 311 310 310 312 313 312 312 315 318 317 315 314 312 313 311 313 311 313 314 314 314 315 316 315 318 318 318 318 319 327 336
312 312 312 311 311 311 311 312 312 312 312 312 312 311 311 310 314 315 317 317 315 314 318 317 317 314 312 313 312 312 314 313 314 316 315 315 315 316 316 317 318 318 317 318 319
311 311 311 311 311 311 311 311 312 312 311 311 311 311 310 311 316 318 315 316 318 315 318 318 315 313 313 313 314 313 313 314 315 315 315 314 315 315 315 316 317 317 317 317 316
310 309 310 310 311 311 311 311 311 311 311 311 310 310 311 315 315 317 319 319 316 320 318 317 315 313 313 315 314 313 312 314 315 315 313 313 314 314 314 315 317 318 318 317 316
310 310 309 309 310 310 310 311 310 311 311 310 311 310 312 315 313 317 318 321 317 319 317 316 314 313 314 315 314 313 313 314 312 313 313 314 314 314 314 316 318 317 317 316 316
310 310 309 309 309 310 310 310 310 310 309 311 311 311 312 314 314 318 318 322 320 317 317 316 315 315 315 313 314 314 314 313 314 313 313 314 313 314 314 317 317 317 316 317 316
308 309 308 308 308 309 309 308 308 308 308 311 312 312 313 314 314 317 319 318 322 320 318 316 315 314 315 313 314 313 313 312 312 313 314 313 313 316 316 316 317 317 318 318 317
307 308 307 307 307 307 307 306 306 305 310 312 313 314 317 316 317 316 318 319 320 320 319 318 316 315 315 313 311 312 312 312 313 314 315 313 313 316 318 317 317 317 318 317 317
304 304 305 304 305 306 305 305 303 310 312 313 313 315 315 313 319 320 319 320 321 321 319 317 316 314 312 310 312 312 313 313 316 315 316 315 313 314 317 318 319 318 318 319 319
304 303 303 302 302 301 303 305 312 315 315 317 316 317 315 317 320 321 320 320 321 322 320 317 314 314 313 313 313 313 314 315 317 318 317 316 316 317 317 319 318 318 319 319 319
302 302 302 302 302 302 304 307 313 314 312 315 317 318 316 317 320 321 321 321 322 323 320 317 316 315 315 314 313 314 313 314 317 318 316 317 319 318 319 319 318 319 318 319 322
302 302 302 302 303 305 307 312 314 315 313 313 315 317 317 318 319 320 320 320 323 323 322 319 317 317 316 315 315 314 313 314 316 318 318 319 320 321 322 321 320 320 319 321 322
301 301 302 302 304 306 304 306 311 311 311 310 311 316 315 314 317 319 320 320 322 324 322 320 318 318 317 317 316 315 315 315 317 318 320 319 317 320 321 320 320 322 320 321 323
300 301 302 303 304 305 306 308 311 312 315 311 314 316 317 315 317 317 320 321 322 323 322 323 320 320 319 318 318 317 317 316 317 318 320 319 317 316 320 320 318 321 322 324 326
300 300 301 303 304 306 305 307 309 315 317 312 313 312 316 318 317 318 318 320 321 322 322 322 321 321 321 321 319 319 318 317 317 316 318 318 318 316 319 320 319 321 323 332 332
300 300 301 302 303 304 305 308 317 318 311 311 312 313 312 314 323 323 320 320 324 325 324 324 322 321 321 321 321 317 315 318 321 319 318 317 318 317 321 327 321 321 331 330 329
300 301 303 304 306 307 307 312 316 311 313 312 311 311 312 316 321 320 321 324 321 322 323 325 326 321 321 321 319 317 317 317 320 320 319 318 319 317 319 326 325 330 329 328 326
302 304 306 309 308 308 312 314 310 310 309 311 311 313 313 317 321 320 322 325 322 322 324 323 324 323 322 322 319 318 319 317 319 329 330 328 324 320 325 327 329 328 328 329 327
304 306 308 312 312 310 314 314 315 312 311 311 315 315 317 317 319 320 319 322 326 324 323 323 325 323 323 322 321 318 318 319 318 330 331 331 333 334 331 329 327 328 328 327 325
304 307 308 314 313 313 315 313 311 311 314 315 317 317 316 318 318 320 321 320 323 327 323 325 327 326 326 323 320 318 320 319 322 325 327 329 332 333 331 329 328 326 326 324 322
303 305 306 309 313 313 314 314 312 313 313 316 316 316 317 317 318 321 321 320 317 316 323 326 325 327 327 324 322 318 318 325 327 328 329 330 333 331 329 329 329 329 326 322 321
303 304 307 309 315 314 313 312 312 314 316 316 317 315 316 318 318 319 319 319 319 319 328 327 327 329 328 326 323 324 320 324 327 327 330 330 333 327 328 330 330 328 327 326 324
303 308 310 312 311 309 312 313 314 313 316 316 315 316 314 318 318 319 319 322 321 323 325 325 329 327 329 327 325 324 322 324 325 329 331 331 331 329 330 329 328 327 325 324 325
305 307 305 307 306 308 311 312 314 317 316 316 314 314 315 319 319 319 320 323 322 324 324 325 331 330 327 326 328 329 329 325 328 329 331 331 328 328 325 328 326 326 324 323 322
304 304 304 304 307 308 311 312 315 316 316 316 316 316 316 317 318 319 321 319 322 325 322 324 331 331 330 330 328 330 329 328 327 330 331 328 329 328 326 325 325 325 324 323 318
301 302 304 305 306 308 310 312 314 314 315 315 315 314 314 316 313 317 320 321 323 325 321 325 329 326 330 326 328 329 327 328 328 329 327 327 325 326 326 327 326 324 323 318 316
Wind_Speed
22 24 24 23 22 22 22 22 21 19 18 19 20 21 22 24 30 30 18 27 17 20 13 17 14 16 15 5 8 5 6 10 13 12 13 16 6 4 5 5 5 6 6 10 11
22 22 22 24 22 22 22 22 21 20 19 20 21 22 22 27 32 24 43 37 32 21 21 16 12 11 6 7 5 8 7 17 7 13 11 11 4 7 4 4 4 5 5 13 11
22 21 21 21 21 22 22 22 21 20 20 21 22 22 24 24 9 9 7 11 36 29 24 17 19 7 9 9 8 8 18 8 12 20 18 13 6 6 2 3 3 4 6 6 5
21 21 22 21 21 21 22 22 21 20 21 21 22 22 22 12 7 4 4 11 11 30 24 19 8 9 10 12 17 15 17 15 16 17 14 10 6 5 5 5 4 7 5 6 8
20 21 22 21 22 23 23 22 23 24 24 23 22 18 13 7 13 18 12 11 4 26 26 17 13 13 15 17 15 17 15 17 17 17 13 10 8 5 8 9 5 5 7 6 7
24 23 21 22 22 24 25 25 26 26 27 26 21 14 7 17 20 20 22 17 15 27 25 20 10 16 8 16 15 10 16 18 13 16 11 9 8 5 8 8 7 7 8 8 7
26 26 26 26 26 26 27 28 30 30 28 25 21 15 15 28 12 18 13 28 22 26 17 29 31 11 14 8 15 14 17 15 20 9 13 10 11 12 8 9 10 11 10 10 9
25 25 26 28 29 30 32 32 35 34 33 23 16 13 13 22 26 30 25 20 23 25 26 24 29 19 17 8 9 9 13 15 9 10 13 8 18 11 11 13 11 15 10 10 10
26 27 27 30 33 34 36 38 42 35 20 11 8 9 12 15 13 40 30 19 26 22 28 28 23 18 17 10 5 7 10 12 15 9 6 16 18 11 12 9 11 10 9 9 9
28 29 30 31 31 31 36 41 38 21 9 10 13 7 10 9 11 14 27 28 15 16 18 16 11 14 12 7 16 10 13 13 10 11 18 17 16 16 16 11 16 10 9 10 9
29 31 31 31 33 31 31 16 2 3 8 11 13 11 22 16 28 15 26 21 18 18 19 19 12 18 21 20 9 13 13 13 11 17 12 16 16 17 12 7 9 9 9 9 10
31 32 33 35 36 35 27 4 10 14 20 23 28 28 35 38 15 17 26 16 20 20 18 13 24 15 16 14 15 19 18 17 12 13 12 11 8 11 9 7 9 11 10 8 6
33 34 34 37 39 23 8 15 27 33 16 21 23 26 26 26 25 28 20 22 13 20 22 22 11 18 17 19 21 21 18 15 13 15 7 3 5 5 1 3 6 9 8 5 5
33 34 34 34 20 17 20 15 21 26 5 12 11 9 16 22 22 32 27 24 17 23 22 21 19 22 22 23 21 19 18 18 16 12 3 6 5 4 3 5 5 4 9 7 10
37 36 33 25 18 10 12 22 23 16 6 10 10 16 4 19 6 22 31 22 25 22 20 23 23 24 23 25 20 15 14 16 15 7 3 9 3 6 9 9 9 4 6 9 14
41 40 38 28 19 29 32 32 20 5 10 9 9 14 14 4 14 4 18 23 18 20 20 20 15 22 26 20 22 17 13 11 10 4 5 7 5 5 5 12 14 7 8 16 18
44 45 46 34 17 14 17 8 4 7 6 12 13 17 22 18 2 13 17 23 18 18 24 22 26 25 25 21 22 16 8 6 4 6 5 7 8 8 6 1 13 11 18 15 17
47 47 42 28 24 18 14 3 10 9 18 19 27 26 17 20 7 6 17 13 23 23 11 17 21 26 21 27 18 17 12 5 8 5 7 11 12 12 9 6 4 22 19 17 13
45 34 25 26 21 24 4 8 5 10 15 19 23 25 19 4 6 8 7 18 22 23 19 16 22 18 23 20 17 11 11 9 5 4 3 3 5 7 16 15 20 15 17 16 11
33 24 19 23 13 21 4 10 7 16 21 22 18 13 16 19 8 0 2 12 7 19 22 17 10 23 20 17 18 10 8 9 8 7 4 4 2 1 10 4 18 20 17 15 15
18 7 14 7 6 5 5 8 16 20 19 2 9 14 17 19 9 6 5 7 8 8 17 18 2 6 5 12 20 5 10 5 5 6 5 3 4 7 2 7 9 6 15 18 17
8 6 15 19 2 4 4 2 12 20 20 12 10 17 17 20 9 7 5 6 9 8 11 8 6 6 6 22 10 8 11 6 5 3 2 5 3 7 8 6 4 11 11 8 15
7 7 13 9 5 4 6 13 18 18 9 6 7 8 15 6 3 7 8 11 9 10 5 6 5 5 3 4 6 5 10 7 8 4 5 5 4 8 6 11 7 10 6 10 10
4 5 4 3 6 7 10 13 14 13 11 7 8 9 16 9 7 4 10 7 13 13 13 5 5 6 8 5 5 3 4 14 8 5 7 3 6 6 11 21 18 20 17 18 11
3 4 6 6 13 17 16 17 19 11 5 7 2 6 5 5 6 8 10 2 2 7 3 4 1 6 9 7 3 5 6 7 8 14 7 10 14 14 7 12 13 18 19 19 9
4 4 2 10 13 17 15 14 15 16 8 5 3 9 7 5 3 4 4 2 5 5 2 2 2 6 5 9 8 2 7 7 4 6 8 10 6 4 11 7 13 15 14 13 10
6 8 4 8 10 10 11 20 17 18 8 8 8 7 10 3 11 11 3 1 5 3 5 5 6 4 4 6 8 7 6 3 3 5 9 4 6 9 10 6 15 13 13 17 16
Wind_Direction
333 332 334 333 328 326 324 322 321 320 318 317 316 315 313 312 308 303 256 248 237 248 249 267 263 225 235 257 256 245 232 240 244 251 262 282 358 286 82 74 24 26 96 133 110
331 328 325 323 323 321 320 318 318 317 314 314 315 315 315 318 307 274 277 260 248 227 222 217 237 194 213 218 248 204 220 230 240 258 264 289 15 322 68 55 359 6 332 112 127
328 327 324 324 320 319 317 316 315 314 313 312 314 317 320 330 291 240 299 266 227 218 229 222 231 215 207 232 222 248 234 249 233 246 261 281 331 357 58 170 195 239 262 270 158
334 332 329 325 320 318 314 312 311 309 308 309 312 315 319 318 273 168 78 34 193 209 208 226 245 235 210 217 227 243 243 238 253 268 279 281 291 327 305 248 227 223 236 258 254
330 326 327 323 320 317 313 308 307 305 302 300 304 310 327 242 245 246 245 301 203 195 209 213 220 229 231 218 230 231 241 237 235 252 259 263 250 206 267 280 292 285 287 290 288
333 333 327 321 318 314 310 307 303 301 300 302 300 292 260 261 261 266 246 230 201 187 209 210 219 222 254 235 224 240 236 245 241 235 255 265 243 213 225 244 250 256 245 257 247
328 327 324 322 318 313 310 308 306 302 300 298 290 265 243 241 250 272 317 203 207 199 205 217 224 230 228 260 231 241 256 256 238 234 251 252 278 236 221 231 230 230 227 224 232
322 321 319 318 315 312 310 307 303 302 301 293 285 236 253 261 266 269 251 253 216 212 212 220 225 240 252 253 265 248 254 254 256 224 236 209 259 255 224 216 230 215 226 211 231
324 321 319 317 317 316 314 311 302 300 295 270 251 221 266 284 229 242 238 226 198 216 208 227 218 226 247 236 273 261 241 248 249 244 233 209 239 247 246 227 205 211 190 203 222
328 323 317 313 310 311 314 314 308 301 266 238 241 232 259 261 241 224 218 224 212 201 213 226 230 227 230 190 221 219 229 246 253 232 239 251 233 232 241 247 200 188 192 209 199
330 331 330 328 323 318 320 335 331 146 209 207 198 224 291 277 307 201 210 209 236 197 212 212 221 218 211 224 222 244 237 230 224 240 228 235 238 205 231 233 167 190 206 212 193
334 334 331 328 323 318 305 236 246 279 293 223 235 244 237 264 276 280 189 195 218 206 206 210 227 220 221 226 225 245 245 255 270 247 211 249 237 186 203 200 193 186 201 217 199
331 331 330 331 324 315 248 239 286 290 283 284 244 231 229 221 240 248 195 203 213 212 207 212 211 219 217 219 227 232 237 246 247 274 234 223 249 197 235 0 347 173 177 141 152
327 325 326 331 326 327 297 304 327 340 293 287 244 241 226 210 256 223 237 186 217 221 214 231 225 203 223 229 220 230 222 239 252 261 217 168 243 267 232 269 285 263 134 122 93
324 323 321 320 285 280 273 309 322 310 284 285 276 167 188 183 178 205 213 202 203 219 198 218 203 228 218 224 231 232 232 218 240 247 216 266 91 269 218 230 245 190 174 112 117
324 320 319 310 277 259 285 301 290 229 241 266 302 303 321 264 242 226 208 214 196 213 233 224 229 222 233 236 217 221 235 237 222 216 229 225 152 262 222 221 214 195 147 119 107
326 319 310 285 255 269 298 311 234 229 298 267 281 311 327 309 254 345 260 212 190 202 218 225 228 231 229 224 237 203 204 225 224 217 209 195 243 213 205 86 205 186 127 115 107
328 318 305 274 269 261 248 236 239 256 238 270 308 307 322 332 10 39 321 273 207 202 200 217 235 217 221 225 225 206 194 151 195 176 219 188 231 235 202 74 108 123 115 107 106
332 316 294 287 245 220 211 230 247 253 270 290 313 309 312 309 340 25 309 274 222 204 217 209 233 243 227 215 202 210 196 174 122 56 77 300 298 231 165 122 113 117 117 115 117
325 304 272 302 215 172 195 238 233 266 291 291 302 287 299 306 246 37 163 295 266 261 226 236 232 224 237 194 244 179 169 185 205 156 164 270 291 43 1 38 151 146 140 139 118
321 310 305 12 338 145 233 246 280 297 306 201 231 269 281 282 283 194 201 290 11 325 314 258 116 282 22 211 201 154 181 167 123 139 150 164 234 117 354 25 28 77 134 128 123
314 300 288 337 134 259 279 351 291 291 297 295 267 259 261 289 264 173 216 237 57 326 284 278 157 209 248 253 306 186 197 145 146 187 135 141 277 135 125 47 30 46 38 90 124
310 278 297 272 271 280 342 305 291 301 315 274 274 295 310 292 279 185 206 210 155 239 254 343 154 112 173 298 302 280 191 137 128 89 179 149 238 168 134 120 235 78 41 44 345
298 306 339 315 24 308 303 292 306 330 316 295 317 3 343 278 240 247 235 143 187 246 247 311 204 176 185 176 205 244 227 173 154 148 144 200 147 214 194 181 175 165 146 136 255
261 314 20 318 323 314 303 297 308 320 282 283 262 355 320 284 302 242 257 174 193 272 198 332 301 153 170 73 151 13 346 177 152 140 130 170 146 232 202 182 143 144 151 166 178
316 333 308 298 293 311 309 318 325 337 282 288 278 314 306 267 238 306 35 104 279 161 72 262 143 147 68 138 140 352 349 345 8 109 81 152 129 150 98 94 143 145 161 179 118
320 285 270 293 304 309 327 324 298 303 289 15 351 345 310 338 313 268 158 349 301 177 143 346 214 101 84 127 132 242 230 245 68 72 115 249 195 162 118 190 153 163 145 105 93